Weather History for Lake Charles Regional, LA

Change the Weather History Date:

Tuesday, June 19, 2012

  Actual Average Record
Temperature  
Mean Temperature 81 °F 82 °F  
Max Temperature 88 °F 90 °F 99 °F (1990)
Min Temperature 74 °F 73 °F 56 °F (1917)
Degree Days  
Heating Degree Days 0 0  
Month to date heating degree days 0 0  
Since 1 June heating degree days 0 0  
Since 1 July heating degree days 954 1490  
Cooling Degree Days 16 17  
Month to date cooling degree days 305 292  
Year to date cooling degree days 1194 830  
Since 1 June cooling degree days 305 292  
Growing Degree Days 32 (Base 50)    
Moisture  
Dew Point 73 °F    
Average Humidity 76    
Maximum Humidity 94    
Minimum Humidity 57    
Precipitation  
Precipitation 0.20 in 0.25 in 15.79 in (1947)
Month to date precipitation 3.60 4.19  
Year to date precipitation 35.47 25.07  
Snow  
Snow 0.00 in 0.00 in 0.00 in ()
Month to date snowfall 0.0 0.0  
Since 1 June snowfall 0.0 0.0  
Since 1 July snowfall 0.0 0.1  
Snow Depth 0.00 in    
Sea Level Pressure  
Sea Level Pressure 29.98 in    
Wind  
Wind Speed 10 mph (SE)    
Max Wind Speed 22 mph    
Max Gust Speed 28 mph    
Visibility 8 miles    
Events Rain , Thunderstorm    
T = Trace of Precipitation, MM = Missing Value Source: NWS Daily Summary

Daily Weather History Graph

Daily Weather History Graph

Search for Another Location

Airport:

Trip Planner

Search our weather history database for the weather conditions in past years. The results will help you decide how hot, cold, wet, or windy it might be!

Date:

Astronomy

Jun. 19, 2012 Rise Set
Actual Time 6:11 AM CDT 8:17 PM CDT
Civil Twilight 5:44 AM CDT 8:44 PM CDT
Nautical Twilight 5:10 AM CDT 9:18 PM CDT
Astronomical Twilight 4:34 AM CDT 9:53 PM CDT
Moon 6:14 AM CDT (6/19) 8:25 PM CDT (6/19)
Length of Visible Light 15h 00m
Length of Day
14h 05m
New Moon, 0% of the Moon is Illuminated
Jun 19
New Moon
Jun 26
First Quarter
Jul 3
Full
Jul 10
Last Quarter
Jul 18
New

Hourly Weather History & Observations

Time (CDT) Temp. Heat Index Dew Point Humidity Pressure Visibility Wind Dir Wind Speed Gust Speed Precip Events Conditions
12:53 AM 75.0 °F - 73.9 °F 96% 29.94 in 7.0 mi ESE 4.6 mph - N/A   Partly Cloudy
1:53 AM 75.0 °F - 73.9 °F 96% 29.94 in 6.0 mi ESE 5.8 mph - N/A   Clear
2:53 AM 75.9 °F - 73.9 °F 94% 29.93 in 7.0 mi ESE 6.9 mph - N/A   Clear
3:53 AM 75.0 °F - 73.9 °F 96% 29.94 in 6.0 mi East 5.8 mph - N/A   Clear
4:53 AM 75.0 °F - 73.9 °F 96% 29.94 in 7.0 mi East 6.9 mph - N/A   Clear
5:53 AM 75.0 °F - 73.9 °F 96% 29.96 in 8.0 mi East 4.6 mph - N/A   Partly Cloudy
6:53 AM 75.0 °F - 73.9 °F 96% 29.97 in 7.0 mi East 5.8 mph - N/A   Clear
7:53 AM 78.1 °F - 75.0 °F 90% 29.98 in 8.0 mi East 8.1 mph - N/A   Scattered Clouds
8:53 AM 80.1 °F 85.4 °F 75.9 °F 87% 29.99 in 9.0 mi ESE 11.5 mph - N/A   Clear
9:40 AM 77.0 °F - 71.6 °F 83% 29.97 in 2.0 mi South 16.1 mph 24.2 mph 0.01 in Rain , Thunderstorm Thunderstorms and Rain
9:43 AM 75.2 °F - 71.6 °F 89% 29.98 in 1.0 mi SSE 13.8 mph 24.2 mph 0.03 in Rain , Thunderstorm Heavy Thunderstorms and Rain
9:50 AM 75.2 °F - 71.6 °F 89% 29.98 in 0.8 mi SE 16.1 mph 24.2 mph 0.14 in Rain , Thunderstorm Heavy Thunderstorms and Rain
9:53 AM 75.9 °F - 73.0 °F 91% 30.00 in 1.2 mi SE 13.8 mph 20.7 mph 0.18 in Rain Heavy Rain
9:56 AM 75.2 °F - 73.4 °F 94% 29.98 in 2.0 mi ESE 11.5 mph 20.7 mph 0.01 in Rain , Thunderstorm Rain
10:05 AM 77.0 °F - 73.4 °F 89% 29.98 in 10.0 mi SE 12.7 mph - 0.02 in Rain , Thunderstorm Light Rain
10:12 AM 77.0 °F - 71.6 °F 83% 29.98 in 10.0 mi SE 15.0 mph - 0.02 in Rain , Thunderstorm Light Rain
10:33 AM 80.6 °F 85.4 °F 73.4 °F 79% 29.98 in 10.0 mi ESE 9.2 mph - 0.02 in   Clear
10:42 AM 82.4 °F 89.5 °F 75.2 °F 79% 29.98 in 10.0 mi SE 10.4 mph - 0.02 in Thunderstorm Clear
10:53 AM 84.0 °F 91.2 °F 73.9 °F 72% 30.01 in 10.0 mi SSE 15.0 mph 19.6 mph 0.02 in   Scattered Clouds
11:53 AM 86.0 °F 93.8 °F 73.9 °F 67% 30.01 in 10.0 mi SSE 16.1 mph 23.0 mph N/A   Scattered Clouds
12:53 PM 86.0 °F 92.2 °F 72.0 °F 63% 30.01 in 10.0 mi SSE 16.1 mph 24.2 mph N/A   Scattered Clouds
1:53 PM 87.1 °F 93.6 °F 72.0 °F 61% 30.00 in 10.0 mi SSE 16.1 mph 25.3 mph N/A   Clear
2:53 PM 88.0 °F 95.6 °F 73.0 °F 61% 29.98 in 10.0 mi SSE 20.7 mph 26.5 mph N/A   Partly Cloudy
3:53 PM 87.1 °F 95.4 °F 73.9 °F 65% 29.97 in 10.0 mi South 13.8 mph 23.0 mph 0.00 in   Mostly Cloudy
4:53 PM 84.0 °F 89.6 °F 72.0 °F 67% 29.97 in 10.0 mi SE 13.8 mph 24.2 mph N/A   Mostly Cloudy
5:53 PM 86.0 °F 90.4 °F 69.8 °F 58% 29.95 in 10.0 mi SSE 15.0 mph - N/A   Clear
6:53 PM 82.9 °F 87.5 °F 71.1 °F 67% 29.99 in 10.0 mi SSE 8.1 mph - N/A   Clear
7:53 PM 81.0 °F 84.4 °F 70.0 °F 69% 30.00 in 10.0 mi SSE 9.2 mph - N/A   Clear
8:53 PM 77.0 °F - 71.1 °F 82% 30.00 in 8.0 mi SE 3.5 mph - N/A   Clear
9:53 PM 77.0 °F - 70.0 °F 79% 30.01 in 10.0 mi SE 8.1 mph - N/A   Clear
10:53 PM 75.2 °F - 69.8 °F 83% 29.99 in 10.0 mi ESE 6.9 mph - N/A   Clear
11:53 PM 75.0 °F - 71.1 °F 87% 30.01 in 10.0 mi ESE 6.9 mph - N/A   Clear